Tracking 20232 objects as of 19-Jan-2020
HD Live streaming from Space Station
objects crossing your sky now

COSMOS 715

Track COSMOS 715 now!
10-day predictions
COSMOS 715 is classified as:


NORAD ID: 7682
Int'l Code: 1975-016E
Perigee: 1,476.0 km
Apogee: 1,511.7 km
Inclination: 74.0 °
Period: 115.7 minutes
Semi major axis: 7864 km
RCS: 0.728 m2 (medium)
Launch date: February 28, 1975
Source: Commonwealth of Independent States (former USSR) (CIS)
Launch site: PLESETSK MISSILE AND SPACE COMPLEX (PKMTR)
aabbcc
Your satellite tracking list
Your tracking list is empty




NASA's NSSDC Master Catalog

Two Line Element Set (TLE):
1  7682U 75016E   20018.43173341 -.00000006 +00000-0 +69684-4 0  9993
2  7682 074.0040 013.7087 0022638 316.4496 156.8740 12.44707642610498
Source of the keplerian elements: AFSPC